DIDO-2

Last updated on Fri Jul 12 2024 00:03:37 GMT+0000 (Coordinated Universal Time)

1 42000U 17008BE 24193.14122659 .03664044 23375-5 67438-3 0 9994 2 42000 97.1246 256.7610 0012848 257.1819 102.8042 16.32105501412648
UTC large
Height (km)
Speed (km/s)
/
Latitude / Longitude
Inclination (degrees)
Orbital Period (minutes)
Azimuth
Elevation
Range (km)
Doppler Factor

Next 0 passes for location: London (51.5072 / 0.1276)

Sorry there are no passes over London.